Theta_e
327 325 328 328 326 327 328 326 325 326 332 332 325 325 333 328 322 328 329 330 338 337 337 350 348 341 342 342 340 339 338 341 343 344 345 346 347 349 350 352 351 352 353 354 354 352 351 350 348 347 343 338 334 332 331 328 326 326 327 328 328 327 327
327 324 325 328 326 330 330 322 326 330 328 333 334 327 328 326 324 331 329 325 330 330 335 352 352 346 348 346 342 340 339 341 342 344 345 345 347 348 349 350 350 351 352 352 353 352 350 348 346 344 342 339 334 331 330 329 326 326 326 327 328 328 328
327 326 324 325 325 326 327 324 328 329 323 327 331 326 325 325 324 329 329 329 332 333 342 350 346 353 354 344 344 344 341 342 342 343 345 344 347 348 349 350 350 351 352 352 352 352 351 349 346 344 343 341 337 333 331 330 327 326 326 328 329 329 329
326 327 323 321 323 325 326 326 326 328 328 328 326 325 326 325 326 330 330 327 331 342 358 355 346 359 354 343 346 345 341 342 341 343 345 344 346 348 349 350 350 351 352 352 351 351 351 349 346 344 343 342 340 335 333 332 330 330 331 331 331 331 331
324 326 325 322 324 325 324 324 323 324 326 328 327 327 328 327 330 334 330 326 337 356 366 359 350 352 347 343 345 343 340 341 341 342 344 343 345 346 347 349 349 350 351 351 352 351 351 350 349 347 345 344 342 339 336 334 333 334 334 333 333 333 334
321 325 331 328 326 326 325 324 325 325 324 326 324 323 326 329 330 334 331 323 337 362 363 358 355 349 344 343 342 341 340 339 341 343 342 343 345 345 346 347 347 349 350 351 351 352 351 352 351 349 346 343 343 342 339 336 335 335 334 334 333 333 336
324 326 329 327 325 326 327 326 326 329 330 328 322 321 326 327 325 332 332 323 335 366 371 366 360 348 342 340 338 340 340 339 341 342 342 343 344 343 345 345 345 348 349 349 351 351 352 351 350 349 347 344 342 341 340 339 338 336 335 336 337 338 340
327 327 329 329 327 325 325 327 327 327 330 329 328 333 334 328 325 329 327 324 340 374 376 363 350 340 336 337 338 339 338 339 341 341 342 343 342 343 344 343 345 346 347 349 349 350 351 350 350 350 348 346 344 342 342 341 340 337 338 342 344 345 345
322 324 325 326 327 326 327 331 329 325 330 331 333 339 333 326 329 331 326 327 344 369 367 349 338 338 338 337 338 339 338 339 340 341 342 342 342 344 343 343 345 345 346 347 347 348 350 349 350 350 349 347 346 345 345 343 341 341 344 347 348 348 349
319 320 323 325 328 329 330 333 328 326 330 327 329 333 325 323 330 331 331 335 344 356 352 337 335 339 340 338 336 337 339 339 340 341 341 342 342 343 343 344 344 344 345 346 345 346 347 347 349 349 349 349 347 346 347 346 345 346 347 349 350 350 351
320 323 331 337 335 328 325 327 326 327 328 327 334 332 324 329 333 331 340 345 337 339 343 339 340 339 339 341 337 336 338 338 339 341 340 342 342 342 343 343 343 344 344 344 345 345 345 346 347 347 348 348 347 347 347 347 348 348 349 351 352 351 350
323 327 334 337 333 326 323 325 326 327 326 327 331 328 329 338 331 327 347 354 334 333 343 343 342 339 339 342 338 334 338 338 339 341 340 341 342 341 343 342 342 343 343 343 345 344 345 346 346 347 347 347 348 348 347 348 349 350 352 352 352 350 348
325 327 327 329 330 328 326 326 326 326 326 327 327 328 337 342 329 327 350 354 337 336 342 340 340 339 337 339 336 335 338 338 339 340 339 340 341 341 342 342 342 343 343 343 343 343 344 345 345 347 347 347 349 348 348 350 350 351 353 352 352 350 348
326 326 325 326 326 326 326 326 327 326 326 327 325 330 338 337 332 338 349 350 342 337 336 336 336 333 331 333 334 335 337 338 338 339 339 340 341 341 342 342 342 343 342 342 342 343 344 344 345 346 346 347 348 348 349 350 350 353 353 352 352 351 349
324 324 326 327 325 326 325 324 328 326 325 326 325 330 335 331 333 343 344 343 342 338 339 339 330 328 332 333 333 335 337 339 339 339 340 341 341 342 342 342 342 342 343 343 343 344 343 344 345 345 346 347 347 348 349 349 351 353 353 352 352 351 348
322 324 325 326 326 326 323 323 327 325 325 328 329 335 339 334 338 345 340 337 337 340 347 343 332 332 336 334 332 334 336 339 339 340 341 341 341 342 341 342 342 342 342 343 343 343 343 344 345 345 346 347 347 348 349 350 352 352 352 353 352 350 347
322 327 326 327 326 322 323 332 336 332 333 335 335 341 342 341 348 350 341 338 340 343 348 345 339 340 339 333 331 332 334 337 339 340 341 341 341 342 341 342 341 340 341 342 342 343 343 345 346 345 347 347 347 348 349 349 351 351 352 352 351 349 347
323 330 330 326 322 321 331 347 345 336 337 337 336 338 338 341 348 348 342 343 346 345 345 344 344 343 337 333 332 333 334 337 338 340 341 340 340 341 341 341 341 340 340 339 338 338 339 340 341 342 344 346 347 348 348 349 351 351 351 352 351 349 347
329 334 329 321 320 328 344 350 340 335 336 336 338 339 338 340 344 345 344 345 346 345 340 338 337 336 334 333 334 334 336 336 337 339 339 340 341 340 340 341 339 337 336 335 334 334 335 335 334 335 338 341 345 347 349 349 350 350 350 351 350 348 344
329 329 324 321 325 337 347 342 335 338 338 336 339 337 335 339 341 343 344 341 342 342 334 331 333 333 333 334 334 334 336 335 336 338 337 338 339 338 337 336 334 333 333 333 334 335 336 334 333 333 334 337 341 345 348 350 350 351 351 350 349 347 345
335 334 327 327 331 335 341 340 335 336 334 335 338 336 334 339 340 340 341 338 339 339 332 330 332 332 333 335 334 333 333 333 334 335 334 335 334 333 333 332 332 333 334 334 336 337 337 334 333 334 335 337 341 345 348 350 350 350 350 350 349 348 346
341 338 326 329 331 329 337 346 341 335 329 332 339 339 338 343 341 337 339 338 338 338 332 329 330 331 336 338 335 332 332 332 332 332 332 333 332 331 332 332 333 334 334 335 336 338 337 334 334 335 336 338 342 346 348 350 350 350 350 349 349 348 347
343 339 330 333 333 332 340 346 341 335 330 332 339 336 335 343 340 333 335 337 335 334 331 329 331 335 339 339 335 332 332 332 332 333 333 332 332 331 333 334 335 336 337 337 337 337 336 334 334 335 336 338 341 344 347 348 349 349 349 349 349 348 347
345 346 337 332 334 340 345 342 336 333 332 336 339 332 332 341 338 330 333 336 334 331 328 329 335 339 340 339 336 334 333 332 331 332 332 332 332 333 335 337 338 338 337 336 335 335 334 335 337 338 337 337 338 340 344 347 348 348 348 348 348 347 346
343 342 334 329 335 343 342 337 333 331 334 342 342 335 336 339 334 330 332 332 331 331 329 331 335 336 335 337 338 336 335 335 334 335 335 336 337 337 337 338 337 335 335 333 334 336 337 339 339 338 336 336 336 339 342 345 347 348 348 347 346 345 344
341 343 340 334 337 341 334 332 332 333 337 343 340 337 338 334 331 333 333 331 333 333 333 334 335 335 334 336 337 337 337 337 338 338 337 337 337 336 336 336 335 334 336 336 337 339 341 341 339 337 336 335 336 340 343 346 347 347 346 346 344 343 343
340 346 343 333 336 338 332 334 342 342 341 340 335 334 335 333 333 333 331 332 334 333 334 336 336 335 335 335 335 335 335 336 336 335 335 335 334 334 334 335 335 336 338 339 340 342 342 340 338 337 337 338 341 345 346 346 346 346 345 344 343 342 341
341 346 343 337 339 337 331 336 344 341 336 335 333 333 333 334 336 334 333 334 334 333 335 337 336 335 335 335 336 336 335 335 335 335 335 335 336 336 336 337 337 338 340 341 343 344 342 340 339 340 341 343 345 346 346 346 345 345 344 343 342 341 340
340 341 342 341 337 333 330 332 335 333 333 334 335 335 336 336 337 336 336 336 335 335 335 335 335 337 336 335 336 335 335 336 336 336 336 336 336 337 337 339 341 342 344 346 346 345 343 341 342 342 343 345 345 345 345 344 343 342 342 342 341 340 339
338 335 335 335 331 329 329 330 330 331 332 332 334 337 337 336 336 335 335 335 335 335 334 334 335 335 333 333 332 331 332 333 333 334 334 334 335 336 336 339 341 342 345 347 346 345 343 342 343 344 344 345 345 344 344 343 341 340 340 340 339 339 338
339 339 339 336 331 329 328 327 327 329 328 327 330 332 331 332 334 332 331 331 330 331 332 332 334 333 331 329 328 326 327 327 326 327 328 327 331 335 338 340 342 343 344 344 344 344 344 342 343 345 345 345 345 343 342 341 340 339 338 337 337 337 337
341 342 338 334 329 328 328 326 325 326 325 326 327 326 326 328 328 326 325 325 325 325 326 328 330 333 333 332 330 328 326 325 325 325 324 325 330 336 338 340 342 342 343 344 344 344 343 343 344 345 346 346 344 341 339 338 338 338 337 337 337 337 337
339 336 333 332 330 330 329 326 325 325 325 325 326 326 326 327 326 326 326 325 324 324 323 324 325 327 330 332 333 332 329 327 327 326 325 326 330 335 337 338 340 341 343 343 344 344 343 344 345 345 346 344 341 339 337 336 336 336 336 335 334 334 334
337 335 334 333 333 333 329 326 327 327 327 327 326 325 326 326 327 328 328 327 327 326 325 325 325 324 325 327 329 330 330 330 329 328 328 329 331 334 337 338 339 341 342 342 343 343 343 344 344 344 343 341 338 338 337 334 332 332 332 332 331 331 330
337 335 333 330 329 330 327 325 326 327 326 327 325 323 324 324 324 325 325 325 326 326 325 325 325 325 325 325 325 326 329 331 333 331 330 329 330 333 336 338 339 340 340 341 342 342 343 343 341 340 339 338 338 338 336 333 332 332 332 332 331 330 328
334 331 328 326 324 325 323 323 324 323 323 324 323 322 323 322 322 323 323 323 324 324 325 325 324 324 325 326 327 327 328 331 334 334 333 332 332 334 337 338 338 339 339 340 341 340 341 341 339 337 338 339 339 338 336 335 335 335 333 330 329 328 325
330 325 324 323 322 323 323 323 323 322 323 323 322 322 323 322 322 323 322 322 323 323 324 324 324 323 324 325 327 329 330 333 335 336 337 336 335 335 336 337 337 338 339 340 340 339 339 340 338 337 339 341 340 339 338 337 336 334 332 330 329 327 325
Wind_Speed
9 10 8 8 8 5 2 4 4 5 6 7 3 3 1 3 3 2 2 4 4 3 5 6 2 9 11 13 19 20 21 25 28 31 34 38 41 43 45 48 50 50 47 47 47 46 46 45 44 45 44 44 44 44 44 44 43 42 41 39 37 35 32
12 15 13 8 9 9 4 5 7 4 2 3 3 2 1 3 3 4 2 5 4 2 4 5 3 5 10 12 15 17 19 23 27 32 37 40 43 44 46 49 50 48 47 48 48 48 47 46 46 47 46 46 45 45 46 46 45 44 43 42 39 37 35
8 9 9 8 9 9 5 4 5 5 2 1 1 3 3 2 3 3 3 3 4 4 5 4 2 8 10 11 12 12 15 21 28 33 38 41 42 42 44 46 47 46 46 47 48 48 48 47 47 47 47 47 46 46 47 47 47 46 44 43 41 39 37
5 3 5 7 9 6 1 1 3 3 3 5 4 3 4 4 3 3 3 3 3 6 6 7 9 11 11 11 11 12 17 26 33 35 37 39 39 40 43 45 47 48 47 48 49 49 49 48 48 48 48 48 48 48 48 48 47 46 45 44 43 41 39
3 3 5 8 8 5 3 3 4 3 2 2 2 2 3 4 4 3 3 3 5 6 5 8 11 10 11 14 15 15 18 27 33 34 36 38 39 42 44 46 48 48 48 48 49 49 49 48 48 48 49 49 49 49 49 49 48 47 47 46 45 43 42
4 6 7 7 9 9 8 7 7 6 5 4 3 3 1 2 3 5 5 4 7 6 4 7 8 7 8 13 15 14 18 27 31 35 38 40 42 44 46 47 48 47 47 48 48 48 48 48 48 49 49 49 50 50 51 51 50 49 49 48 47 46 45
6 9 9 7 9 9 8 8 8 7 5 6 6 5 3 1 1 2 4 3 7 6 4 6 7 6 10 16 17 14 20 29 34 37 39 41 44 47 48 48 47 46 46 46 46 46 47 48 49 50 49 50 50 51 52 52 51 51 50 50 49 48 48
6 7 8 6 4 5 4 6 6 6 6 6 7 5 5 4 3 2 2 3 6 6 4 4 6 6 9 17 22 20 21 28 34 38 40 42 45 47 48 47 46 44 43 42 43 44 46 48 49 50 50 51 51 51 52 53 53 52 51 51 51 50 51
6 6 6 6 3 3 4 4 5 7 8 8 5 3 4 3 5 6 5 5 6 6 4 0 2 5 7 14 23 27 26 28 33 37 40 42 44 46 46 44 42 41 40 40 43 46 47 47 49 51 51 51 51 52 52 53 53 53 52 52 52 52 52
8 7 6 6 3 2 3 3 6 9 10 11 6 3 4 4 4 6 6 5 6 7 5 1 1 5 7 10 17 24 27 30 34 37 38 41 43 45 46 44 42 41 41 43 45 46 46 47 49 51 51 52 53 53 53 53 53 53 53 53 52 53 51
10 9 9 7 3 4 5 5 8 10 11 12 8 5 5 6 4 4 6 7 5 5 6 5 5 6 9 9 12 18 24 29 34 37 39 42 44 45 46 45 44 43 43 44 44 45 46 47 48 49 50 52 53 53 54 53 54 54 54 52 50 47 44
15 13 12 9 4 6 8 9 10 11 10 11 9 7 7 7 7 5 9 6 10 9 9 9 9 9 9 8 11 20 28 31 34 37 39 40 40 42 44 44 44 43 44 44 44 45 45 45 46 48 49 51 51 52 53 52 53 53 50 46 43 42 42
17 15 16 14 8 6 8 8 11 13 12 13 13 12 9 10 9 8 8 9 12 12 11 12 13 13 13 15 20 27 29 30 32 33 35 36 37 40 42 43 44 44 43 42 42 43 44 44 46 47 48 50 50 51 52 51 52 51 46 42 42 43 45
14 15 17 16 12 10 9 9 11 12 13 16 16 12 10 12 11 8 10 14 13 12 13 15 16 16 15 15 19 22 23 26 29 31 33 35 38 41 42 42 43 43 41 40 39 41 42 43 44 45 47 49 49 50 50 51 50 47 43 43 45 47 48
10 12 15 15 13 13 13 13 13 12 12 13 12 7 6 7 5 2 9 12 11 8 6 6 8 11 9 8 14 20 25 30 31 30 32 35 37 39 39 40 40 40 39 38 38 38 39 40 41 43 45 46 47 48 49 49 47 44 43 45 46 46 45
8 10 13 14 11 10 12 13 14 12 9 8 6 4 6 8 5 5 7 8 9 7 2 5 5 7 8 9 15 21 25 29 31 31 32 33 34 35 35 36 36 35 35 36 37 36 35 36 37 39 41 43 44 45 45 44 43 42 43 44 44 43 42
7 8 10 11 7 5 8 10 9 9 7 7 5 3 3 6 8 8 6 7 9 6 7 7 6 6 7 7 11 15 19 22 25 28 30 31 31 31 30 31 31 30 30 30 29 27 26 27 28 30 33 37 40 41 42 42 41 42 43 43 43 44 44
7 5 6 8 6 6 8 6 4 7 8 9 9 6 2 2 1 4 4 4 5 7 9 10 9 8 9 9 9 12 17 21 22 23 25 27 27 26 24 22 21 19 16 13 11 10 10 12 13 16 21 27 33 37 41 42 43 44 45 46 46 46 46
4 3 6 7 6 8 5 5 5 2 10 14 12 8 5 6 5 2 1 1 6 8 8 11 15 16 15 13 12 12 16 21 23 22 21 21 20 18 16 14 12 10 8 7 6 6 7 6 7 9 13 18 24 30 35 39 42 44 46 46 46 45 45
3 4 5 7 6 4 3 5 6 4 6 12 12 8 6 7 6 3 2 1 3 5 6 10 19 25 24 19 16 16 15 17 19 19 18 16 15 14 13 12 12 11 10 9 10 11 10 7 6 8 10 14 18 23 28 34 39 43 45 46 46 46 47
3 5 3 3 1 3 4 2 2 3 3 2 8 7 4 6 7 6 3 2 5 6 8 13 20 26 23 14 9 13 16 17 17 17 16 15 14 14 13 13 13 13 13 13 14 13 10 7 6 7 9 11 15 20 25 30 36 40 43 45 47 48 48
2 5 4 3 3 1 3 6 7 4 5 6 3 9 2 6 7 8 2 4 8 8 9 14 20 21 15 6 2 7 14 16 16 16 16 16 16 15 14 14 13 13 13 13 13 11 7 6 6 7 8 10 13 18 23 28 32 36 40 44 46 47 48
2 5 5 4 2 2 5 8 10 8 9 8 1 8 1 5 7 7 2 4 7 10 11 12 13 12 8 4 2 5 12 15 16 17 19 19 17 16 13 11 11 11 12 12 11 8 6 7 7 7 7 9 12 16 21 24 29 33 37 40 42 44 46
2 3 3 2 3 3 6 7 9 11 10 4 6 5 4 5 7 4 5 7 6 8 10 9 7 6 6 6 1 2 11 15 15 18 20 19 17 15 12 9 9 9 8 7 6 6 7 7 7 7 6 8 11 15 18 22 26 30 31 31 33 37 41
2 3 3 1 1 3 5 7 13 13 6 7 7 4 5 5 9 4 11 14 12 14 16 13 9 8 9 11 9 8 12 14 14 16 15 14 12 11 9 8 7 5 4 5 6 7 7 7 6 6 6 8 10 13 17 21 24 23 23 24 28 32 36
3 3 4 2 2 3 5 13 17 10 4 5 3 3 3 10 9 9 18 21 21 24 25 22 20 19 19 19 18 17 15 13 13 12 10 9 7 5 5 5 4 4 5 6 6 6 6 6 5 6 7 9 11 14 18 20 19 18 19 22 26 30 33
1 3 4 3 2 4 11 14 12 6 4 5 5 7 11 12 10 12 21 25 26 29 28 25 25 25 22 21 20 19 17 14 13 11 9 7 5 2 1 2 4 5 5 6 5 5 5 6 7 8 9 11 13 16 17 16 15 16 19 22 25 28 30
2 3 1 2 4 8 14 8 3 4 8 12 15 15 14 15 17 18 20 24 27 29 27 25 24 23 21 19 18 17 16 14 12 10 8 6 4 1 2 4 5 4 5 5 5 5 7 8 9 10 11 13 14 14 14 13 13 15 17 19 23 27 29
2 4 2 3 4 8 10 14 17 18 21 23 24 25 22 22 24 23 22 22 23 25 26 25 24 22 21 19 17 16 15 13 10 9 8 7 4 3 4 4 4 4 5 5 6 7 9 10 11 12 12 12 12 11 11 12 13 14 16 19 22 25 27
1 4 4 5 5 7 14 25 29 29 29 27 29 33 31 27 27 28 26 24 22 22 22 23 22 20 19 19 17 16 14 12 10 9 9 8 7 5 5 5 5 6 6 7 8 9 11 12 12 13 12 11 10 9 10 10 11 13 16 19 22 24 25
3 3 3 4 6 7 11 22 29 31 32 31 32 34 31 29 29 29 28 26 24 23 23 21 18 16 16 16 16 15 15 13 12 13 12 10 7 5 5 7 8 9 9 9 10 11 13 14 14 13 12 11 10 9 8 8 9 10 12 14 17 18 19
4 4 4 2 11 11 9 15 22 27 30 32 32 32 30 29 29 28 28 26 23 21 21 20 16 13 12 12 12 14 15 14 14 14 12 9 6 5 7 10 11 11 11 12 12 13 15 15 13 13 12 11 9 7 5 5 5 6 8 9 11 11 12
6 6 6 7 12 12 9 13 18 23 26 28 28 26 24 24 23 22 22 21 19 19 19 19 18 16 13 12 11 11 12 11 10 9 8 6 4 5 8 10 11 12 13 14 14 15 15 13 13 14 13 11 10 8 7 9 11 12 13 12 10 9 8
5 4 6 9 9 6 4 9 16 17 17 18 21 21 18 16 15 13 11 10 9 10 10 10 13 15 14 11 9 7 6 6 5 5 5 4 3 5 7 9 11 12 12 13 13 14 14 14 15 16 15 14 14 13 13 14 16 16 16 14 11 7 5
5 7 11 13 12 9 7 11 16 16 15 17 21 24 23 22 21 20 18 16 14 13 10 7 7 9 9 8 7 5 3 4 6 7 7 5 5 6 8 9 10 11 11 11 12 13 14 16 18 18 17 17 17 17 18 18 16 14 12 9 8 10 11
7 12 19 20 19 18 17 20 22 23 23 25 26 26 26 26 25 25 24 22 20 19 19 16 13 11 10 8 6 5 3 3 5 8 9 8 8 8 9 10 10 11 11 11 12 14 16 17 19 20 19 19 19 21 22 20 17 15 12 10 12 14 14
15 18 24 27 28 27 26 28 28 26 25 25 26 26 25 24 23 22 22 22 19 18 18 17 15 13 12 11 9 8 6 4 6 9 10 11 10 10 11 11 11 12 12 12 13 14 16 18 21 21 21 20 21 23 22 17 16 17 15 13 15 15 13
Wind_Direction
224 212 210 181 177 203 194 142 183 214 176 156 168 230 211 108 158 240 194 217 284 282 278 321 293 208 198 204 220 217 205 196 192 197 200 201 205 206 208 211 213 214 213 212 213 214 215 214 212 211 210 210 209 208 208 207 208 210 211 213 214 215 217
241 222 221 227 194 178 180 210 204 184 127 118 131 186 19 75 184 256 201 197 243 224 234 312 9 165 182 190 202 208 200 188 190 198 201 203 206 207 210 213 214 214 213 213 214 215 217 216 214 212 212 211 210 210 209 208 209 210 212 214 216 217 218
239 216 209 248 236 205 209 226 181 149 168 227 148 169 174 159 203 259 275 231 218 195 215 254 216 181 188 192 190 192 191 189 195 200 202 204 206 207 210 212 214 214 214 215 215 216 218 218 216 215 214 213 212 212 212 212 212 212 214 216 218 219 220
221 184 177 222 244 239 217 128 161 153 168 183 182 167 165 181 197 215 274 289 242 226 212 199 209 202 182 176 180 189 195 197 199 199 201 203 204 206 210 213 215 215 215 216 217 218 219 220 219 217 216 215 215 215 215 216 216 217 219 220 220 222 222
222 207 206 202 206 211 194 198 208 187 129 143 173 169 142 153 167 176 214 264 261 251 206 186 212 208 176 176 184 192 198 199 199 200 201 202 204 207 211 215 217 217 217 218 219 220 221 221 220 218 218 217 217 218 218 218 220 221 222 223 223 224 224
231 237 238 201 187 189 187 198 205 185 159 128 149 232 247 127 157 171 174 228 263 259 202 193 214 196 175 188 190 189 194 195 198 202 202 203 206 210 214 217 219 219 218 219 219 219 219 219 220 220 220 220 220 220 221 221 222 223 224 225 225 225 226
233 242 246 224 204 200 199 210 205 177 154 137 150 206 233 192 203 139 127 209 262 262 216 206 226 206 183 191 190 185 188 192 197 202 203 205 208 213 217 219 221 222 222 221 220 220 219 219 221 222 221 221 222 223 223 224 225 225 226 227 227 227 227
271 266 269 267 218 181 211 246 212 174 176 170 161 176 180 184 202 141 129 235 264 276 256 222 233 224 184 184 186 184 186 192 197 200 203 206 209 214 218 220 222 223 222 221 220 220 220 220 222 222 222 223 224 225 225 226 228 229 229 229 229 229 228
267 272 278 285 283 163 190 236 214 193 187 166 142 123 136 191 213 163 159 227 251 274 290 331 175 190 180 182 185 185 187 191 197 200 203 207 210 214 216 218 220 220 220 222 223 223 223 223 224 223 224 225 227 228 228 229 231 232 231 230 230 230 230
222 227 229 235 242 193 198 210 204 202 185 168 161 129 143 209 227 155 158 212 251 281 296 339 183 187 187 190 187 189 191 193 196 200 203 206 210 213 215 217 218 220 222 225 225 226 227 227 226 225 226 227 228 230 231 232 233 233 231 230 230 230 229
211 210 220 221 166 157 204 210 203 208 194 177 158 127 165 188 166 175 210 197 193 251 252 222 228 209 195 193 187 191 198 198 198 200 203 206 210 212 215 217 219 221 223 224 226 229 230 230 229 228 229 230 230 232 233 234 234 234 232 230 227 225 221
214 211 217 218 163 170 207 204 199 207 200 177 162 169 188 160 137 211 250 198 173 207 220 210 215 212 209 208 193 194 199 199 198 200 203 206 210 213 215 218 219 220 222 226 229 231 232 231 231 231 232 232 232 233 234 235 234 233 230 225 221 219 216
220 219 222 223 210 210 220 209 205 204 191 180 186 194 180 152 163 213 224 189 185 199 203 204 206 200 200 204 201 199 200 197 197 199 202 206 209 212 215 217 219 221 224 229 232 233 234 233 232 232 232 232 232 233 234 234 233 231 227 221 219 220 218
227 222 228 232 225 230 239 231 221 208 191 188 195 197 178 172 190 201 178 181 197 202 198 204 207 201 197 198 196 196 196 195 194 196 200 204 208 212 215 217 219 223 227 231 233 233 234 233 233 234 233 233 234 234 234 235 233 229 223 221 223 224 221
237 223 226 232 227 229 236 237 233 219 199 193 193 183 167 182 205 156 153 179 212 225 201 187 189 185 177 172 178 187 194 194 192 194 198 203 207 211 214 217 220 223 227 230 231 232 233 234 235 236 235 235 235 235 235 234 231 226 223 225 227 225 220
234 223 221 228 227 230 240 245 240 224 199 187 185 164 165 176 164 110 122 174 220 231 143 91 114 156 170 184 185 187 192 193 191 193 198 203 207 211 214 218 221 223 227 230 232 235 236 238 238 237 237 236 235 235 234 233 229 226 226 227 226 222 217
234 229 207 205 200 212 244 250 229 202 177 157 145 134 169 168 147 138 159 207 221 201 146 132 138 160 181 203 199 187 185 188 192 196 199 202 207 210 213 217 220 224 230 234 238 242 245 247 248 247 245 242 239 238 236 232 229 228 229 228 224 221 217
224 228 166 155 159 196 232 260 220 173 151 134 118 93 38 3 87 169 193 205 179 156 157 164 163 166 173 181 194 192 183 182 186 193 199 203 206 209 213 218 221 224 226 226 230 239 246 254 257 257 254 251 247 244 240 236 234 232 232 231 227 222 216
195 168 128 149 197 222 245 320 329 132 121 113 99 74 44 13 350 319 328 198 180 173 174 166 155 151 154 159 171 181 186 187 187 189 195 199 201 205 210 211 205 193 181 180 194 199 198 211 228 243 254 255 252 249 244 240 237 234 233 231 226 218 210
162 136 140 182 214 259 333 12 0 4 92 106 94 58 10 4 12 4 347 289 192 162 146 150 148 143 139 140 147 152 161 176 181 181 183 184 188 194 196 193 186 180 185 198 205 198 190 195 222 244 258 261 259 254 248 242 237 234 232 229 225 219 213
152 132 137 176 97 6 345 354 343 317 301 171 116 91 343 334 22 23 356 70 93 101 113 127 134 130 122 112 120 140 149 158 163 166 170 172 177 179 178 179 181 189 201 205 201 196 195 211 241 253 258 262 262 255 247 241 236 232 230 229 228 224 220
115 106 111 101 71 81 243 274 279 281 308 292 128 101 15 314 14 18 349 129 117 110 113 128 130 120 106 90 110 145 151 158 162 164 167 169 171 171 173 178 185 195 204 203 197 197 209 239 255 255 254 258 259 254 247 241 236 233 231 230 229 227 224
63 103 127 135 123 211 242 274 287 304 322 308 52 95 161 279 353 11 33 126 121 122 126 133 125 106 109 154 175 134 145 153 160 165 167 168 169 172 178 185 192 194 192 190 193 206 237 260 256 245 245 253 256 255 251 246 241 236 233 231 232 232 230
55 95 100 122 136 242 260 267 284 302 317 351 79 103 219 283 350 16 124 108 98 113 114 109 90 85 136 161 31 98 144 147 152 160 167 170 169 169 172 175 181 184 185 193 219 249 261 254 238 231 242 255 258 257 255 249 243 239 237 239 241 239 235
16 76 91 105 212 252 264 284 295 304 338 66 92 184 229 355 14 76 120 110 107 105 97 91 83 83 106 109 91 101 124 131 138 148 155 155 150 151 160 168 178 193 219 245 254 252 244 231 227 237 251 260 261 258 254 249 246 245 244 244 242 237 232
9 73 96 33 297 260 304 313 311 321 58 109 173 190 78 39 36 89 101 100 102 98 93 94 98 97 97 97 96 95 97 103 112 115 115 116 117 131 162 180 209 235 246 252 250 241 228 221 234 250 258 265 263 254 247 245 245 245 241 238 236 232 229
45 59 55 47 211 275 325 328 321 348 81 149 151 96 69 53 47 75 90 94 97 96 95 97 101 102 100 98 98 97 95 96 96 88 81 82 78 67 216 250 269 266 265 268 258 239 231 236 249 254 256 258 251 242 239 240 240 237 234 232 231 229 229
74 89 75 173 212 298 335 0 67 61 77 110 110 95 79 70 67 71 80 88 93 96 98 100 102 103 101 99 100 99 96 95 94 89 83 78 69 10 315 302 289 280 277 269 251 238 242 247 247 245 244 245 242 238 239 240 239 236 232 230 229 229 230
139 150 205 265 290 329 18 79 97 90 91 100 101 96 88 80 79 79 78 81 88 93 95 97 98 98 97 98 97 92 89 89 88 88 82 72 59 18 346 323 296 277 260 248 246 249 249 244 238 235 234 234 234 238 241 239 238 237 232 230 229 228 226
148 83 25 358 14 35 74 92 97 97 97 98 96 94 91 87 85 80 73 73 78 81 82 85 89 91 91 91 89 85 83 80 72 64 60 54 44 19 348 315 284 266 251 247 252 254 250 242 233 227 225 223 224 231 236 235 234 233 231 229 228 226 226
137 70 332 346 30 45 77 95 101 102 98 95 95 94 92 91 89 82 75 72 68 64 63 63 68 75 75 74 76 74 69 62 49 38 34 30 22 357 314 283 265 258 257 259 258 254 248 239 228 219 216 215 216 221 227 233 235 235 235 233 231 229 229
106 125 185 89 59 56 67 88 99 103 101 99 100 98 95 94 90 82 77 73 66 59 56 51 49 52 46 41 47 49 47 44 38 30 23 15 359 320 291 277 266 261 261 258 253 249 245 236 221 211 208 206 207 211 217 214 200 192 198 207 211 210 208
83 105 156 126 78 63 64 80 89 95 98 100 101 102 101 100 96 88 80 74 65 58 56 50 44 39 29 20 22 26 30 33 31 23 14 1 326 291 286 281 272 265 260 256 254 251 243 228 210 203 202 197 190 185 173 151 138 141 154 160 156 156 164
136 145 172 154 117 89 98 106 101 99 98 93 91 91 88 89 95 96 94 87 64 47 41 34 23 14 2 357 2 8 10 4 350 343 343 329 294 282 282 277 272 268 262 259 259 251 235 218 203 197 193 184 178 176 169 155 146 148 152 149 143 151 182
159 150 145 140 124 117 126 119 108 106 106 97 90 88 85 82 82 82 85 86 78 68 65 58 34 12 356 344 332 320 319 315 310 315 319 310 293 286 279 275 279 278 268 262 256 241 224 212 201 193 188 182 178 178 175 170 169 173 173 176 200 218 225
93 118 123 118 109 103 103 102 99 97 97 96 91 87 84 82 80 80 81 82 82 82 79 75 70 63 51 33 358 324 294 268 284 297 296 285 279 280 275 276 283 282 273 263 249 231 219 212 202 195 191 188 187 187 187 193 206 216 223 236 237 228 226
108 110 110 104 99 96 94 93 89 86 87 89 85 81 80 80 81 81 79 76 75 76 73 67 61 52 42 36 27 10 346 303 278 276 273 270 273 278 280 281 283 280 273 262 247 233 224 216 208 203 199 197 198 200 203 216 231 229 230 239 234 225 229